QPF
0.06 0.08 0.09 0.08 0.06 0.06 0.07 0.09 0.05 0.07 0.05 0.03 0.02 0.00 0.00 0.02 0.02 0.04 0.04 0.02 0.00 0.01 0.01 0.01 0.01 0.01 0.01 0.01 0.01 0.01 0.01 0.02 0.02 0.01 0.01 0.02 0.01 0.01 0.00 0.00 0.00 0.00 0.00
0.06 0.05 0.05 0.06 0.06 0.05 0.06 0.05 0.04 0.05 0.04 0.03 0.02 0.01 0.01 0.02 0.04 0.05 0.07 0.05 0.01 0.00 0.01 0.01 0.01 0.01 0.01 0.01 0.00 0.01 0.02 0.02 0.02 0.01 0.01 0.01 0.01 0.01 0.00 0.00 0.00 0.00 0.00
0.06 0.05 0.05 0.05 0.05 0.05 0.05 0.04 0.05 0.03 0.04 0.03 0.02 0.01 0.02 0.03 0.04 0.06 0.09 0.08 0.05 0.02 0.01 0.01 0.01 0.01 0.01 0.01 0.00 0.01 0.01 0.01 0.01 0.01 0.01 0.01 0.01 0.01 0.00 0.01 0.00 0.00 0.00
0.04 0.05 0.05 0.05 0.05 0.05 0.05 0.05 0.04 0.04 0.06 0.06 0.05 0.03 0.04 0.04 0.04 0.06 0.07 0.08 0.08 0.07 0.03 0.01 0.01 0.01 0.00 0.00 0.01 0.01 0.01 0.01 0.01 0.01 0.01 0.00 0.00 0.00 0.01 0.00 0.00 0.00 0.00
0.03 0.03 0.05 0.07 0.05 0.06 0.05 0.04 0.06 0.04 0.08 0.07 0.04 0.04 0.03 0.03 0.03 0.04 0.05 0.04 0.05 0.07 0.05 0.02 0.01 0.00 0.00 0.01 0.03 0.01 0.01 0.01 0.01 0.01 0.01 0.01 0.00 0.00 0.00 0.00 0.00 0.00 0.00
0.02 0.02 0.03 0.06 0.06 0.07 0.06 0.06 0.08 0.06 0.07 0.05 0.04 0.06 0.06 0.05 0.04 0.03 0.02 0.02 0.01 0.01 0.02 0.03 0.02 0.01 0.00 0.01 0.02 0.01 0.01 0.01 0.02 0.01 0.01 0.01 0.01 0.01 0.00 0.00 0.00 0.00 0.00
0.04 0.04 0.05 0.09 0.07 0.07 0.07 0.07 0.08 0.07 0.06 0.04 0.08 0.09 0.08 0.06 0.05 0.03 0.02 0.02 0.01 0.02 0.03 0.05 0.03 0.05 0.02 0.01 0.01 0.01 0.01 0.01 0.02 0.01 0.01 0.01 0.01 0.02 0.01 0.01 0.01 0.00 0.00
0.07 0.05 0.07 0.09 0.08 0.09 0.08 0.09 0.10 0.11 0.10 0.07 0.07 0.10 0.12 0.12 0.08 0.02 0.02 0.02 0.02 0.02 0.03 0.03 0.03 0.05 0.04 0.04 0.01 0.00 0.01 0.01 0.01 0.01 0.01 0.01 0.01 0.01 0.01 0.01 0.01 0.01 0.00
0.08 0.07 0.07 0.06 0.09 0.08 0.09 0.09 0.09 0.10 0.12 0.09 0.05 0.06 0.09 0.13 0.10 0.05 0.02 0.01 0.02 0.03 0.02 0.02 0.01 0.02 0.04 0.05 0.03 0.01 0.00 0.01 0.01 0.02 0.02 0.01 0.01 0.00 0.00 0.01 0.01 0.01 0.01
0.09 0.07 0.07 0.07 0.07 0.07 0.12 0.07 0.08 0.11 0.12 0.08 0.07 0.04 0.04 0.06 0.08 0.09 0.06 0.03 0.04 0.03 0.02 0.01 0.01 0.03 0.03 0.05 0.05 0.01 0.00 0.00 0.00 0.01 0.02 0.02 0.02 0.01 0.01 0.01 0.01 0.01 0.01
0.09 0.07 0.07 0.09 0.07 0.07 0.10 0.09 0.12 0.09 0.07 0.05 0.05 0.06 0.06 0.06 0.04 0.06 0.09 0.08 0.05 0.02 0.01 0.01 0.01 0.02 0.02 0.03 0.04 0.01 0.00 0.00 0.00 0.00 0.01 0.01 0.02 0.03 0.02 0.02 0.02 0.02 0.02
0.12 0.10 0.11 0.11 0.08 0.08 0.11 0.10 0.11 0.09 0.10 0.09 0.08 0.06 0.06 0.05 0.05 0.07 0.09 0.08 0.06 0.02 0.01 0.01 0.01 0.00 0.00 0.01 0.02 0.02 0.02 0.01 0.00 0.00 0.00 0.00 0.01 0.01 0.02 0.02 0.02 0.03 0.03
0.12 0.12 0.13 0.12 0.10 0.10 0.11 0.12 0.12 0.11 0.10 0.09 0.07 0.07 0.05 0.03 0.03 0.05 0.07 0.06 0.04 0.02 0.01 0.01 0.01 0.01 0.00 0.01 0.02 0.02 0.01 0.00 0.00 0.00 0.00 0.00 0.00 0.00 0.00 0.01 0.01 0.02 0.03
0.12 0.12 0.13 0.11 0.11 0.10 0.10 0.13 0.12 0.11 0.11 0.10 0.07 0.08 0.07 0.03 0.03 0.05 0.06 0.06 0.05 0.05 0.04 0.02 0.01 0.01 0.01 0.02 0.04 0.04 0.01 0.02 0.00 0.00 0.00 0.00 0.00 0.00 0.00 0.00 0.00 0.01 0.01
0.14 0.13 0.12 0.12 0.12 0.13 0.14 0.16 0.12 0.13 0.14 0.11 0.09 0.09 0.08 0.05 0.04 0.04 0.05 0.08 0.09 0.09 0.08 0.04 0.02 0.02 0.02 0.03 0.05 0.04 0.04 0.06 0.03 0.01 0.01 0.00 0.00 0.00 0.00 0.00 0.00 0.00 0.00
0.18 0.17 0.15 0.14 0.12 0.12 0.14 0.15 0.14 0.14 0.16 0.15 0.14 0.14 0.13 0.10 0.09 0.07 0.07 0.07 0.08 0.10 0.08 0.04 0.03 0.02 0.03 0.04 0.06 0.04 0.04 0.04 0.02 0.01 0.01 0.01 0.01 0.00 0.00 0.00 0.00 0.00 0.00
0.16 0.15 0.15 0.15 0.14 0.12 0.14 0.14 0.13 0.13 0.13 0.14 0.14 0.15 0.15 0.14 0.12 0.08 0.06 0.06 0.07 0.08 0.08 0.07 0.06 0.05 0.05 0.05 0.05 0.04 0.02 0.03 0.02 0.03 0.02 0.02 0.01 0.01 0.00 0.01 0.01 0.01 0.01
0.14 0.12 0.13 0.14 0.13 0.13 0.15 0.15 0.14 0.14 0.13 0.13 0.14 0.14 0.12 0.12 0.11 0.09 0.09 0.09 0.10 0.11 0.10 0.09 0.09 0.08 0.06 0.04 0.05 0.04 0.02 0.02 0.03 0.05 0.03 0.02 0.01 0.01 0.01 0.00 0.00 0.00 0.00
0.13 0.13 0.13 0.12 0.13 0.14 0.15 0.15 0.16 0.16 0.15 0.13 0.13 0.12 0.10 0.11 0.10 0.09 0.10 0.09 0.09 0.08 0.07 0.07 0.07 0.07 0.06 0.05 0.06 0.06 0.05 0.05 0.02 0.03 0.03 0.02 0.02 0.01 0.01 0.01 0.00 0.00 0.00
0.15 0.14 0.15 0.14 0.14 0.14 0.14 0.16 0.17 0.17 0.15 0.13 0.13 0.12 0.10 0.10 0.10 0.11 0.11 0.11 0.10 0.10 0.10 0.09 0.07 0.07 0.06 0.05 0.07 0.06 0.06 0.06 0.04 0.02 0.02 0.02 0.02 0.01 0.01 0.01 0.01 0.01 0.00
0.14 0.15 0.16 0.16 0.15 0.14 0.11 0.12 0.14 0.15 0.13 0.12 0.12 0.11 0.11 0.13 0.14 0.12 0.10 0.12 0.12 0.11 0.11 0.10 0.09 0.08 0.07 0.08 0.08 0.07 0.06 0.05 0.04 0.03 0.03 0.02 0.03 0.03 0.03 0.02 0.02 0.01 0.01
0.16 0.15 0.14 0.14 0.14 0.11 0.11 0.11 0.14 0.16 0.15 0.14 0.15 0.14 0.12 0.14 0.11 0.09 0.07 0.07 0.07 0.08 0.08 0.09 0.09 0.09 0.09 0.09 0.08 0.05 0.06 0.06 0.05 0.04 0.05 0.03 0.03 0.04 0.04 0.04 0.04 0.03 0.03
0.15 0.14 0.15 0.16 0.16 0.15 0.14 0.12 0.10 0.12 0.15 0.17 0.18 0.17 0.13 0.12 0.13 0.13 0.11 0.08 0.07 0.06 0.06 0.07 0.09 0.09 0.08 0.08 0.07 0.07 0.07 0.07 0.06 0.05 0.07 0.04 0.03 0.05 0.04 0.05 0.04 0.03 0.03
0.17 0.15 0.17 0.18 0.17 0.16 0.15 0.13 0.12 0.13 0.16 0.17 0.16 0.17 0.17 0.15 0.13 0.13 0.13 0.13 0.10 0.09 0.07 0.07 0.09 0.10 0.10 0.10 0.09 0.07 0.07 0.06 0.06 0.06 0.07 0.05 0.05 0.05 0.03 0.04 0.03 0.03 0.02
0.17 0.17 0.19 0.20 0.17 0.15 0.14 0.13 0.13 0.15 0.16 0.15 0.14 0.14 0.15 0.14 0.12 0.11 0.13 0.14 0.12 0.11 0.08 0.08 0.09 0.08 0.08 0.07 0.06 0.05 0.05 0.05 0.04 0.04 0.05 0.04 0.04 0.04 0.03 0.03 0.02 0.01 0.01
0.14 0.15 0.16 0.17 0.16 0.14 0.14 0.13 0.13 0.14 0.13 0.12 0.12 0.12 0.12 0.09 0.08 0.09 0.11 0.13 0.14 0.14 0.12 0.10 0.08 0.07 0.06 0.05 0.03 0.04 0.05 0.05 0.05 0.04 0.03 0.03 0.03 0.02 0.02 0.02 0.02 0.02 0.02
MSLP
1015.78 1015.98 1016.12 1016.22 1016.33 1016.45 1016.60 1016.75 1016.88 1016.97 1017.01 1017.02 1017.01 1017.05 1017.15 1017.36 1017.68 1018.10 1018.59 1019.09 1019.57 1019.98 1020.30 1020.53 1020.70 1020.83 1020.94 1021.06 1021.19 1021.33 1021.48 1021.61 1021.73 1021.82 1021.91 1022.00 1022.10 1022.22 1022.35 1022.48 1022.60 1022.69 1022.75
1015.62 1015.83 1015.98 1016.09 1016.21 1016.33 1016.48 1016.63 1016.78 1016.91 1017.01 1017.08 1017.15 1017.24 1017.38 1017.59 1017.88 1018.24 1018.66 1019.09 1019.51 1019.89 1020.21 1020.49 1020.72 1020.91 1021.09 1021.25 1021.40 1021.53 1021.63 1021.71 1021.77 1021.82 1021.88 1021.96 1022.07 1022.21 1022.37 1022.53 1022.66 1022.76 1022.82
1015.38 1015.62 1015.80 1015.94 1016.09 1016.24 1016.40 1016.59 1016.77 1016.95 1017.11 1017.25 1017.38 1017.52 1017.68 1017.88 1018.13 1018.41 1018.73 1019.07 1019.41 1019.74 1020.05 1020.35 1020.63 1020.90 1021.14 1021.35 1021.52 1021.65 1021.73 1021.77 1021.78 1021.79 1021.83 1021.89 1022.01 1022.16 1022.34 1022.51 1022.65 1022.76 1022.81
1015.12 1015.38 1015.60 1015.80 1015.99 1016.19 1016.40 1016.62 1016.85 1017.08 1017.29 1017.50 1017.68 1017.86 1018.04 1018.22 1018.40 1018.60 1018.81 1019.04 1019.28 1019.53 1019.81 1020.11 1020.42 1020.73 1021.03 1021.29 1021.50 1021.65 1021.73 1021.75 1021.74 1021.73 1021.74 1021.80 1021.91 1022.06 1022.24 1022.42 1022.56 1022.67 1022.72
1014.86 1015.15 1015.42 1015.68 1015.93 1016.18 1016.45 1016.71 1016.99 1017.26 1017.52 1017.77 1018.00 1018.21 1018.39 1018.54 1018.67 1018.78 1018.88 1018.99 1019.12 1019.29 1019.50 1019.77 1020.08 1020.42 1020.76 1021.07 1021.32 1021.50 1021.60 1021.63 1021.62 1021.61 1021.61 1021.66 1021.76 1021.91 1022.08 1022.24 1022.38 1022.48 1022.53
1014.66 1014.96 1015.28 1015.59 1015.90 1016.21 1016.51 1016.82 1017.12 1017.42 1017.72 1018.00 1018.26 1018.49 1018.67 1018.81 1018.89 1018.93 1018.93 1018.93 1018.95 1019.01 1019.14 1019.35 1019.63 1019.97 1020.33 1020.67 1020.96 1021.18 1021.32 1021.39 1021.41 1021.41 1021.43 1021.48 1021.57 1021.70 1021.85 1022.00 1022.12 1022.20 1022.25
1014.52 1014.84 1015.17 1015.53 1015.88 1016.23 1016.56 1016.89 1017.21 1017.52 1017.83 1018.13 1018.41 1018.65 1018.85 1018.98 1019.04 1019.02 1018.96 1018.86 1018.78 1018.74 1018.77 1018.90 1019.12 1019.42 1019.77 1020.12 1020.44 1020.70 1020.89 1021.01 1021.09 1021.13 1021.17 1021.24 1021.33 1021.44 1021.57 1021.69 1021.79 1021.85 1021.89
1014.46 1014.77 1015.11 1015.48 1015.85 1016.22 1016.56 1016.89 1017.20 1017.51 1017.81 1018.12 1018.41 1018.67 1018.89 1019.04 1019.10 1019.06 1018.95 1018.80 1018.63 1018.49 1018.43 1018.46 1018.60 1018.83 1019.13 1019.47 1019.80 1020.09 1020.33 1020.52 1020.65 1020.75 1020.84 1020.93 1021.02 1021.13 1021.23 1021.33 1021.40 1021.45 1021.49
1014.45 1014.73 1015.07 1015.43 1015.80 1016.16 1016.49 1016.80 1017.09 1017.37 1017.66 1017.96 1018.26 1018.55 1018.80 1018.97 1019.06 1019.04 1018.92 1018.74 1018.51 1018.30 1018.14 1018.07 1018.11 1018.25 1018.48 1018.77 1019.08 1019.39 1019.67 1019.91 1020.10 1020.27 1020.41 1020.53 1020.65 1020.75 1020.85 1020.92 1020.98 1021.02 1021.05
1014.45 1014.69 1015.00 1015.34 1015.69 1016.02 1016.33 1016.61 1016.88 1017.13 1017.40 1017.69 1018.00 1018.31 1018.59 1018.81 1018.93 1018.95 1018.86 1018.67 1018.42 1018.16 1017.92 1017.76 1017.69 1017.72 1017.86 1018.07 1018.35 1018.64 1018.94 1019.22 1019.47 1019.69 1019.89 1020.06 1020.20 1020.31 1020.40 1020.47 1020.52 1020.55 1020.59
1014.38 1014.59 1014.87 1015.18 1015.51 1015.82 1016.10 1016.36 1016.59 1016.82 1017.07 1017.35 1017.66 1017.98 1018.29 1018.55 1018.73 1018.80 1018.74 1018.58 1018.34 1018.05 1017.76 1017.51 1017.34 1017.27 1017.30 1017.43 1017.64 1017.90 1018.18 1018.48 1018.77 1019.04 1019.29 1019.49 1019.67 1019.80 1019.90 1019.97 1020.01 1020.05 1020.10
1014.21 1014.39 1014.64 1014.93 1015.24 1015.53 1015.80 1016.04 1016.26 1016.48 1016.71 1016.97 1017.28 1017.60 1017.93 1018.22 1018.44 1018.56 1018.56 1018.44 1018.22 1017.93 1017.61 1017.31 1017.06 1016.90 1016.83 1016.87 1017.00 1017.20 1017.45 1017.74 1018.05 1018.34 1018.62 1018.86 1019.06 1019.22 1019.33 1019.41 1019.46 1019.51 1019.57
1013.88 1014.05 1014.29 1014.57 1014.87 1015.17 1015.44 1015.69 1015.90 1016.12 1016.34 1016.59 1016.88 1017.20 1017.53 1017.83 1018.09 1018.24 1018.29 1018.22 1018.04 1017.78 1017.46 1017.14 1016.85 1016.61 1016.46 1016.41 1016.45 1016.58 1016.78 1017.04 1017.32 1017.62 1017.91 1018.17 1018.40 1018.57 1018.71 1018.80 1018.86 1018.92 1018.98
1013.40 1013.57 1013.81 1014.09 1014.41 1014.72 1015.02 1015.29 1015.52 1015.75 1015.97 1016.22 1016.49 1016.79 1017.10 1017.40 1017.66 1017.84 1017.93 1017.91 1017.79 1017.57 1017.29 1016.98 1016.68 1016.41 1016.20 1016.07 1016.04 1016.08 1016.21 1016.41 1016.66 1016.93 1017.21 1017.47 1017.70 1017.89 1018.03 1018.14 1018.22 1018.28 1018.35
1012.78 1012.96 1013.21 1013.51 1013.85 1014.20 1014.53 1014.84 1015.11 1015.36 1015.59 1015.84 1016.09 1016.37 1016.65 1016.93 1017.18 1017.37 1017.50 1017.53 1017.47 1017.32 1017.10 1016.84 1016.56 1016.29 1016.05 1015.87 1015.77 1015.74 1015.79 1015.91 1016.09 1016.31 1016.55 1016.78 1017.00 1017.18 1017.33 1017.45 1017.54 1017.62 1017.69
1012.07 1012.26 1012.52 1012.84 1013.21 1013.59 1013.97 1014.32 1014.64 1014.93 1015.19 1015.44 1015.68 1015.93 1016.19 1016.45 1016.68 1016.88 1017.03 1017.11 1017.12 1017.06 1016.92 1016.73 1016.50 1016.26 1016.03 1015.82 1015.66 1015.56 1015.53 1015.57 1015.66 1015.81 1015.98 1016.17 1016.35 1016.51 1016.65 1016.77 1016.86 1016.95 1017.03
1011.33 1011.53 1011.79 1012.13 1012.51 1012.92 1013.34 1013.74 1014.11 1014.44 1014.73 1015.01 1015.26 1015.51 1015.75 1015.98 1016.21 1016.42 1016.60 1016.73 1016.81 1016.83 1016.78 1016.68 1016.53 1016.34 1016.13 1015.92 1015.73 1015.57 1015.46 1015.40 1015.41 1015.46 1015.55 1015.67 1015.80 1015.92 1016.04 1016.14 1016.23 1016.31 1016.40
1010.63 1010.81 1011.07 1011.40 1011.79 1012.21 1012.65 1013.09 1013.51 1013.89 1014.24 1014.55 1014.83 1015.10 1015.35 1015.59 1015.82 1016.05 1016.26 1016.44 1016.58 1016.68 1016.73 1016.72 1016.65 1016.52 1016.35 1016.15 1015.94 1015.73 1015.56 1015.41 1015.32 1015.28 1015.28 1015.31 1015.37 1015.44 1015.52 1015.59 1015.67 1015.75 1015.83
1010.01 1010.17 1010.41 1010.71 1011.09 1011.51 1011.96 1012.42 1012.88 1013.32 1013.72 1014.09 1014.43 1014.74 1015.03 1015.30 1015.56 1015.82 1016.06 1016.29 1016.49 1016.66 1016.78 1016.84 1016.85 1016.78 1016.65 1016.47 1016.25 1016.02 1015.79 1015.57 1015.40 1015.26 1015.17 1015.12 1015.10 1015.11 1015.13 1015.17 1015.22 1015.28 1015.36
1009.51 1009.65 1009.85 1010.13 1010.46 1010.86 1011.30 1011.78 1012.27 1012.76 1013.23 1013.68 1014.09 1014.48 1014.83 1015.16 1015.46 1015.75 1016.03 1016.29 1016.54 1016.75 1016.93 1017.05 1017.10 1017.08 1016.99 1016.84 1016.62 1016.37 1016.11 1015.84 1015.60 1015.39 1015.22 1015.08 1014.99 1014.93 1014.89 1014.89 1014.90 1014.93 1014.99
1009.17 1009.29 1009.46 1009.69 1009.99 1010.35 1010.77 1011.24 1011.76 1012.29 1012.83 1013.36 1013.86 1014.33 1014.77 1015.17 1015.53 1015.86 1016.17 1016.46 1016.72 1016.95 1017.14 1017.29 1017.37 1017.38 1017.32 1017.18 1016.98 1016.74 1016.46 1016.17 1015.89 1015.62 1015.39 1015.20 1015.03 1014.91 1014.81 1014.75 1014.71 1014.70 1014.72
1009.02 1009.13 1009.27 1009.47 1009.72 1010.04 1010.44 1010.90 1011.42 1011.99 1012.59 1013.20 1013.79 1014.35 1014.87 1015.34 1015.76 1016.13 1016.45 1016.74 1016.99 1017.21 1017.39 1017.52 1017.60 1017.62 1017.58 1017.46 1017.29 1017.06 1016.80 1016.51 1016.22 1015.93 1015.67 1015.43 1015.21 1015.03 1014.87 1014.75 1014.65 1014.59 1014.56
1009.09 1009.21 1009.34 1009.51 1009.73 1010.02 1010.38 1010.82 1011.34 1011.93 1012.57 1013.24 1013.90 1014.54 1015.13 1015.66 1016.12 1016.51 1016.83 1017.09 1017.31 1017.48 1017.62 1017.72 1017.77 1017.78 1017.74 1017.65 1017.50 1017.31 1017.08 1016.83 1016.55 1016.28 1016.01 1015.75 1015.50 1015.27 1015.06 1014.88 1014.71 1014.58 1014.48
1009.42 1009.57 1009.72 1009.89 1010.09 1010.34 1010.66 1011.08 1011.58 1012.17 1012.82 1013.52 1014.22 1014.91 1015.54 1016.10 1016.57 1016.95 1017.25 1017.47 1017.62 1017.73 1017.80 1017.85 1017.86 1017.85 1017.81 1017.73 1017.62 1017.48 1017.30 1017.10 1016.87 1016.63 1016.38 1016.12 1015.86 1015.60 1015.35 1015.10 1014.87 1014.66 1014.48
1010.05 1010.24 1010.42 1010.60 1010.79 1011.02 1011.31 1011.68 1012.15 1012.71 1013.34 1014.03 1014.74 1015.43 1016.07 1016.62 1017.08 1017.43 1017.67 1017.83 1017.91 1017.94 1017.94 1017.92 1017.89 1017.85 1017.80 1017.75 1017.67 1017.58 1017.47 1017.33 1017.16 1016.97 1016.76 1016.52 1016.26 1015.98 1015.69 1015.39 1015.09 1014.81 1014.55
1010.97 1011.22 1011.45 1011.64 1011.83 1012.03 1012.29 1012.61 1013.02 1013.53 1014.11 1014.75 1015.42 1016.07 1016.67 1017.18 1017.59 1017.89 1018.07 1018.16 1018.17 1018.13 1018.06 1017.98 1017.90 1017.84 1017.78 1017.74 1017.70 1017.66 1017.60 1017.52 1017.42 1017.28 1017.10 1016.89 1016.64 1016.36 1016.04 1015.70 1015.36 1015.01 1014.67
Thickness
5766 5765 5763 5761 5760 5759 5757 5757 5757 5757 5756 5755 5755 5755 5754 5754 5751 5747 5742 5740 5737 5735 5733 5731 5729 5727 5725 5724 5722 5721 5720 5719 5718 5717 5716 5715 5714 5713 5712 5711 5710 5709 5708
5766 5764 5762 5761 5761 5760 5759 5758 5758 5757 5756 5756 5755 5755 5755 5754 5751 5747 5743 5740 5738 5736 5733 5731 5730 5728 5726 5724 5723 5721 5720 5719 5717 5716 5716 5715 5714 5713 5711 5711 5710 5708 5707
5766 5764 5762 5761 5762 5761 5760 5758 5758 5757 5756 5756 5755 5755 5754 5753 5751 5749 5746 5742 5739 5737 5735 5733 5731 5729 5727 5725 5724 5722 5720 5719 5718 5717 5716 5715 5714 5713 5712 5711 5710 5708 5707
5765 5763 5762 5762 5762 5761 5760 5758 5758 5756 5756 5755 5755 5755 5754 5753 5752 5751 5748 5745 5742 5740 5737 5735 5733 5731 5729 5727 5725 5724 5722 5720 5719 5717 5716 5715 5714 5713 5712 5711 5710 5709 5707
5764 5762 5762 5762 5761 5761 5760 5759 5758 5757 5754 5754 5754 5754 5754 5754 5754 5753 5752 5749 5747 5744 5741 5737 5735 5733 5731 5729 5728 5726 5724 5722 5720 5719 5717 5716 5715 5714 5713 5712 5711 5709 5708
5763 5762 5761 5760 5760 5760 5759 5758 5757 5756 5755 5753 5754 5754 5754 5755 5755 5754 5754 5753 5751 5748 5745 5742 5738 5735 5733 5732 5730 5728 5726 5725 5723 5721 5719 5718 5716 5715 5714 5713 5712 5710 5709
5762 5761 5762 5760 5759 5759 5758 5758 5756 5754 5753 5754 5750 5748 5751 5755 5755 5756 5756 5754 5753 5752 5749 5745 5742 5739 5736 5734 5732 5731 5729 5727 5725 5723 5722 5720 5718 5717 5716 5715 5713 5712 5711
5761 5760 5759 5759 5758 5757 5757 5757 5755 5752 5752 5754 5749 5742 5739 5743 5750 5757 5756 5754 5754 5753 5751 5749 5746 5743 5741 5738 5736 5733 5731 5730 5728 5726 5724 5722 5720 5719 5718 5716 5715 5713 5712
5760 5760 5759 5758 5758 5757 5755 5755 5754 5751 5747 5751 5753 5746 5737 5734 5741 5750 5754 5755 5755 5754 5753 5752 5750 5747 5745 5742 5740 5737 5735 5732 5730 5728 5726 5724 5722 5721 5719 5718 5716 5714 5713
5760 5759 5758 5757 5757 5757 5756 5755 5755 5753 5749 5746 5750 5752 5750 5747 5739 5737 5746 5753 5754 5753 5753 5754 5753 5751 5748 5746 5744 5741 5738 5735 5733 5730 5728 5726 5724 5722 5720 5719 5717 5716 5714
5758 5758 5758 5757 5756 5756 5756 5755 5755 5754 5751 5749 5748 5749 5748 5748 5747 5739 5736 5743 5749 5753 5754 5754 5754 5753 5751 5748 5746 5743 5741 5738 5735 5732 5730 5728 5726 5724 5722 5720 5718 5717 5715
5756 5757 5757 5756 5756 5755 5755 5755 5754 5753 5751 5750 5750 5749 5747 5744 5742 5741 5738 5738 5741 5749 5754 5755 5755 5754 5753 5750 5748 5746 5743 5740 5736 5734 5731 5729 5726 5724 5722 5721 5719 5717 5716
5754 5755 5757 5756 5755 5754 5755 5754 5753 5751 5751 5749 5748 5749 5749 5749 5748 5745 5741 5739 5741 5746 5751 5754 5756 5755 5753 5751 5749 5747 5744 5740 5737 5734 5732 5729 5727 5724 5722 5721 5719 5717 5715
5756 5758 5757 5756 5755 5754 5754 5753 5752 5751 5750 5748 5748 5748 5747 5748 5749 5748 5744 5740 5736 5738 5743 5747 5753 5754 5753 5751 5748 5745 5742 5739 5737 5734 5731 5729 5726 5724 5722 5720 5718 5716 5714
5757 5757 5756 5755 5754 5753 5752 5751 5750 5749 5748 5747 5746 5746 5745 5746 5747 5748 5747 5743 5735 5728 5730 5741 5745 5750 5749 5748 5745 5742 5740 5737 5734 5732 5730 5727 5725 5722 5720 5718 5716 5714 5712
5756 5755 5754 5754 5753 5752 5751 5749 5748 5748 5746 5745 5744 5742 5742 5742 5743 5744 5743 5742 5739 5732 5728 5736 5740 5745 5746 5745 5741 5739 5738 5736 5733 5730 5728 5725 5723 5721 5718 5716 5714 5712 5710
5754 5753 5752 5751 5750 5749 5748 5746 5745 5744 5743 5741 5741 5739 5738 5739 5738 5739 5739 5738 5736 5733 5727 5732 5738 5740 5739 5738 5736 5735 5734 5733 5731 5728 5726 5723 5721 5718 5716 5714 5711 5709 5706
5751 5750 5750 5749 5747 5746 5745 5744 5742 5742 5740 5738 5737 5736 5735 5735 5733 5733 5733 5733 5732 5732 5727 5724 5728 5731 5732 5732 5731 5730 5730 5729 5728 5726 5724 5721 5718 5716 5713 5710 5708 5705 5703
5748 5747 5746 5745 5744 5743 5742 5741 5740 5739 5737 5735 5734 5732 5731 5729 5727 5727 5727 5726 5726 5727 5725 5722 5721 5723 5725 5726 5724 5723 5723 5722 5723 5722 5720 5717 5714 5711 5709 5706 5703 5701 5698
5745 5743 5742 5741 5740 5739 5738 5737 5736 5735 5733 5732 5730 5728 5727 5724 5723 5722 5721 5720 5720 5718 5718 5716 5714 5716 5716 5718 5716 5713 5711 5713 5713 5715 5714 5711 5709 5706 5703 5700 5698 5694 5691
5741 5740 5738 5737 5736 5735 5734 5733 5732 5730 5728 5726 5724 5723 5721 5719 5718 5717 5715 5713 5712 5710 5708 5707 5706 5706 5706 5705 5703 5704 5701 5702 5703 5704 5703 5702 5700 5698 5695 5693 5691 5688 5684
5736 5735 5733 5731 5729 5728 5728 5728 5727 5725 5722 5720 5717 5716 5714 5712 5711 5709 5707 5706 5705 5702 5699 5698 5697 5696 5696 5695 5695 5694 5691 5689 5688 5694 5691 5690 5691 5688 5687 5685 5683 5680 5676
5730 5727 5725 5724 5721 5719 5719 5720 5719 5718 5716 5713 5711 5708 5707 5706 5704 5702 5700 5698 5696 5695 5693 5691 5688 5687 5686 5685 5684 5682 5680 5679 5678 5682 5681 5679 5680 5677 5677 5675 5673 5670 5667
5723 5720 5718 5717 5713 5710 5710 5711 5711 5710 5708 5705 5703 5701 5698 5696 5694 5692 5692 5690 5688 5687 5686 5684 5682 5680 5679 5677 5676 5674 5672 5671 5672 5672 5671 5666 5667 5666 5666 5663 5661 5658 5655
5716 5713 5711 5709 5706 5702 5702 5702 5701 5701 5698 5695 5693 5691 5689 5686 5684 5684 5683 5680 5679 5677 5676 5675 5673 5671 5669 5667 5665 5663 5661 5658 5656 5656 5657 5653 5652 5651 5650 5649 5647 5644 5641
5709 5706 5702 5699 5697 5694 5693 5694 5693 5692 5689 5685 5683 5680 5677 5675 5673 5673 5672 5670 5667 5666 5666 5665 5663 5662 5659 5657 5654 5650 5647 5644 5642 5640 5640 5637 5635 5633 5632 5633 5631 5629 5626